Location: Unspecified
(0.0000°N, 0.0000°E)
Time: 08:07:37
(UTC+00:00)

Tiros 1 despin weight - Pass Details

Date: 04 October 2023
Orbit: 583 x 627 km, 48.2° (Epoch: 05 December)

Event Time Altitude Azimuth Distance (km) Brightness Sun altitude
Rises 03:22:02 0° 309° (NW) 2,784 - -36.6°
Reaches altitude 10° 03:24:23 10° 302° (WNW) 1,888 - -36.0°
Maximum altitude 03:28:28 42° 231° (SW) 828 - -35.0°
Drops below altitude 10° 03:32:37 10° 159° (SSE) 1,905 - -34.0°
Exits shadow 03:33:23 - 156° (SSE) 2,194 ? -33.8°
Sets 03:34:59 0° 152° (SSE) 2,813 ? -33.4°
